Year,Month,Day,Hour,Minute,Value (Times are PST for temperature in C)
2018,08,17,00,00,13.30
2018,08,17,00,01,13.30
2018,08,17,00,02,13.30
2018,08,17,00,03,13.30
2018,08,17,00,04,13.30
2018,08,17,00,05,13.30
2018,08,17,00,06,13.30
2018,08,17,00,07,13.30
2018,08,17,00,08,13.30
2018,08,17,00,09,13.30
2018,08,17,00,10,13.20
2018,08,17,00,11,13.20
2018,08,17,00,12,13.20
2018,08,17,00,13,13.20
2018,08,17,00,14,13.20
2018,08,17,00,15,13.20
2018,08,17,00,16,13.20
2018,08,17,00,17,13.20
2018,08,17,00,18,13.20
2018,08,17,00,19,13.20
2018,08,17,00,20,13.20
2018,08,17,00,21,13.20
2018,08,17,00,22,13.20
2018,08,17,00,23,13.20
2018,08,17,00,24,13.20
2018,08,17,00,25,13.20
2018,08,17,00,26,13.20
2018,08,17,00,27,13.20
2018,08,17,00,28,13.20
2018,08,17,00,29,13.20
2018,08,17,00,30,13.20
2018,08,17,00,31,13.20
2018,08,17,00,32,13.20
2018,08,17,00,33,13.20
2018,08,17,00,34,13.20
2018,08,17,00,35,13.20
2018,08,17,00,36,13.20
2018,08,17,00,37,13.20
2018,08,17,00,38,13.20
2018,08,17,00,39,13.10
2018,08,17,00,40,13.10
2018,08,17,00,41,13.10
2018,08,17,00,42,13.20
2018,08,17,00,43,13.10
2018,08,17,00,44,13.20
2018,08,17,00,45,13.20
2018,08,17,00,46,13.20
2018,08,17,00,47,13.20
2018,08,17,00,48,13.20
2018,08,17,00,49,13.20
2018,08,17,00,50,13.20
2018,08,17,00,51,13.20
2018,08,17,00,52,13.20
2018,08,17,00,53,13.20
2018,08,17,00,54,13.20
2018,08,17,00,55,13.20
2018,08,17,00,56,13.20
2018,08,17,00,57,13.20
2018,08,17,00,58,13.20
2018,08,17,00,59,13.20
2018,08,17,01,00,13.20
2018,08,17,01,01,13.20
2018,08,17,01,02,13.20
2018,08,17,01,03,13.20
2018,08,17,01,04,13.20
2018,08,17,01,05,13.20
2018,08,17,01,06,13.20
2018,08,17,01,07,13.20
2018,08,17,01,08,13.20
2018,08,17,01,09,13.20
2018,08,17,01,10,13.20
2018,08,17,01,11,13.20
2018,08,17,01,12,13.20
2018,08,17,01,13,13.20
2018,08,17,01,14,13.20
2018,08,17,01,15,13.10
2018,08,17,01,16,13.10
2018,08,17,01,17,13.10
2018,08,17,01,18,13.10
2018,08,17,01,19,13.10
2018,08,17,01,20,13.10
2018,08,17,01,21,13.10
2018,08,17,01,22,13.10
2018,08,17,01,23,13.10
2018,08,17,01,24,13.10
2018,08,17,01,25,13.10
2018,08,17,01,26,13.10
2018,08,17,01,27,13.10
2018,08,17,01,28,13.10
2018,08,17,01,29,13.10
2018,08,17,01,30,13.00
2018,08,17,01,31,13.00
2018,08,17,01,32,13.00
2018,08,17,01,33,13.00
2018,08,17,01,34,13.00
2018,08,17,01,35,13.00
2018,08,17,01,36,12.90
2018,08,17,01,37,12.90
2018,08,17,01,38,12.90
2018,08,17,01,39,12.90
2018,08,17,01,40,12.90
2018,08,17,01,41,12.90
2018,08,17,01,42,12.90
2018,08,17,01,43,12.90
2018,08,17,01,44,12.90
2018,08,17,01,45,12.90
2018,08,17,01,46,12.90
2018,08,17,01,47,12.90
2018,08,17,01,48,12.80
2018,08,17,01,49,12.80
2018,08,17,01,50,12.80
2018,08,17,01,51,12.80
2018,08,17,01,52,12.80
2018,08,17,01,53,12.80
2018,08,17,01,54,12.80
2018,08,17,01,55,12.80
2018,08,17,01,56,12.80
2018,08,17,01,57,12.80
2018,08,17,01,58,12.80
2018,08,17,01,59,12.80
2018,08,17,02,00,12.70
2018,08,17,02,01,12.70
2018,08,17,02,02,12.70
2018,08,17,02,03,12.70
2018,08,17,02,04,12.70
2018,08,17,02,05,12.70
2018,08,17,02,06,12.70
2018,08,17,02,07,12.70
2018,08,17,02,08,12.70
2018,08,17,02,09,12.70
2018,08,17,02,10,12.60
2018,08,17,02,11,12.60
2018,08,17,02,12,12.60
2018,08,17,02,13,12.60
2018,08,17,02,14,12.60
2018,08,17,02,15,12.50
2018,08,17,02,16,12.50
2018,08,17,02,17,12.50
2018,08,17,02,18,12.40
2018,08,17,02,19,12.40
2018,08,17,02,20,12.40
2018,08,17,02,21,12.40
2018,08,17,02,22,12.40
2018,08,17,02,23,12.40
2018,08,17,02,24,12.40
2018,08,17,02,25,12.30
2018,08,17,02,26,12.30
2018,08,17,02,27,12.30
2018,08,17,02,28,12.30
2018,08,17,02,29,12.30
2018,08,17,02,30,12.30
2018,08,17,02,31,12.30
2018,08,17,02,32,12.30
2018,08,17,02,33,12.30
2018,08,17,02,34,12.30
2018,08,17,02,35,12.30
2018,08,17,02,36,12.20
2018,08,17,02,37,12.20
2018,08,17,02,38,12.20
2018,08,17,02,39,12.20
2018,08,17,02,40,12.20
2018,08,17,02,41,12.20
2018,08,17,02,42,12.20
2018,08,17,02,43,12.20
2018,08,17,02,44,12.20
2018,08,17,02,45,12.20
2018,08,17,02,46,12.20
2018,08,17,02,47,12.20
2018,08,17,02,48,12.20
2018,08,17,02,49,12.20
2018,08,17,02,50,12.20
2018,08,17,02,51,12.20
2018,08,17,02,52,12.20
2018,08,17,02,53,12.10
2018,08,17,02,54,12.10
2018,08,17,02,55,12.10
2018,08,17,02,56,12.10
2018,08,17,02,57,12.10
2018,08,17,02,58,12.10
2018,08,17,02,59,12.10
2018,08,17,03,00,12.10
2018,08,17,03,01,12.10
2018,08,17,03,02,12.10
2018,08,17,03,03,12.10
2018,08,17,03,04,12.10
2018,08,17,03,05,12.10
2018,08,17,03,06,12.20
2018,08,17,03,07,12.20
2018,08,17,03,08,12.10
2018,08,17,03,09,12.10
2018,08,17,03,10,12.10
2018,08,17,03,11,12.10
2018,08,17,03,12,12.10
2018,08,17,03,13,12.10
2018,08,17,03,14,12.10
2018,08,17,03,15,12.10
2018,08,17,03,16,12.00
2018,08,17,03,17,12.00
2018,08,17,03,18,12.00
2018,08,17,03,19,12.00
2018,08,17,03,20,12.00
2018,08,17,03,21,12.00
2018,08,17,03,22,11.90
2018,08,17,03,23,11.90
2018,08,17,03,24,11.90
2018,08,17,03,25,11.90
2018,08,17,03,26,11.90
2018,08,17,03,27,11.90
2018,08,17,03,28,11.90
2018,08,17,03,29,11.90
2018,08,17,03,30,11.90
2018,08,17,03,31,11.80
2018,08,17,03,32,11.80
2018,08,17,03,33,11.80
2018,08,17,03,34,11.80
2018,08,17,03,35,11.80
2018,08,17,03,36,11.80
2018,08,17,03,37,11.80
2018,08,17,03,38,11.80
2018,08,17,03,39,11.80
2018,08,17,03,40,11.80
2018,08,17,03,41,11.80
2018,08,17,03,42,11.80
2018,08,17,03,43,11.80
2018,08,17,03,44,11.80
2018,08,17,03,45,11.80
2018,08,17,03,46,11.80
2018,08,17,03,47,11.80
2018,08,17,03,48,11.80
2018,08,17,03,49,11.80
2018,08,17,03,50,11.80
2018,08,17,03,51,11.80
2018,08,17,03,52,11.80
2018,08,17,03,53,11.80
2018,08,17,03,54,11.80
2018,08,17,03,55,11.80
2018,08,17,03,56,11.80
2018,08,17,03,57,11.80
2018,08,17,03,58,11.80
2018,08,17,03,59,11.70
2018,08,17,04,00,11.70
2018,08,17,04,01,11.70
2018,08,17,04,02,11.70
2018,08,17,04,03,11.70
2018,08,17,04,04,11.70
2018,08,17,04,05,11.70
2018,08,17,04,06,11.70
2018,08,17,04,07,11.70
2018,08,17,04,08,11.70
2018,08,17,04,09,11.70
2018,08,17,04,10,11.70
2018,08,17,04,11,11.70
2018,08,17,04,12,11.70
2018,08,17,04,13,11.70
2018,08,17,04,14,11.70
2018,08,17,04,15,11.70
2018,08,17,04,16,11.70
2018,08,17,04,17,11.70
2018,08,17,04,18,11.70
2018,08,17,04,19,11.70
2018,08,17,04,20,11.70
2018,08,17,04,21,11.70
2018,08,17,04,22,11.70
2018,08,17,04,23,11.70
2018,08,17,04,24,11.70
2018,08,17,04,25,11.70
2018,08,17,04,26,11.70
2018,08,17,04,27,11.70
2018,08,17,04,28,11.60
2018,08,17,04,29,11.60
2018,08,17,04,30,11.60
2018,08,17,04,31,11.60
2018,08,17,04,32,11.60
2018,08,17,04,33,11.60
2018,08,17,04,34,11.60
2018,08,17,04,35,11.60
2018,08,17,04,36,11.60
2018,08,17,04,37,11.60
2018,08,17,04,38,11.60
2018,08,17,04,39,11.60
2018,08,17,04,40,11.60
2018,08,17,04,41,11.60
2018,08,17,04,42,11.60
2018,08,17,04,43,11.60
2018,08,17,04,44,11.60
2018,08,17,04,45,11.60
2018,08,17,04,46,11.60
2018,08,17,04,47,11.50
2018,08,17,04,48,11.50
2018,08,17,04,49,11.50
2018,08,17,04,50,11.40
2018,08,17,04,51,11.40
2018,08,17,04,52,11.40
2018,08,17,04,53,11.40
2018,08,17,04,54,11.40
2018,08,17,04,55,11.50
2018,08,17,04,56,11.40
2018,08,17,04,57,11.40
2018,08,17,04,58,11.40
2018,08,17,04,59,11.40
2018,08,17,05,00,11.40
2018,08,17,05,01,11.40
2018,08,17,05,02,11.40
2018,08,17,05,03,11.40
2018,08,17,05,04,11.40
2018,08,17,05,05,11.40
2018,08,17,05,06,11.40
2018,08,17,05,07,11.40
2018,08,17,05,08,11.40
2018,08,17,05,09,11.40
2018,08,17,05,10,11.40
2018,08,17,05,11,11.40
2018,08,17,05,12,11.40
2018,08,17,05,13,11.40
2018,08,17,05,14,11.40
2018,08,17,05,15,11.40
2018,08,17,05,16,11.40
2018,08,17,05,17,11.40
2018,08,17,05,18,11.40
2018,08,17,05,19,11.40
2018,08,17,05,20,11.40
2018,08,17,05,21,11.40
2018,08,17,05,22,11.40
2018,08,17,05,23,11.40
2018,08,17,05,24,11.40
2018,08,17,05,25,11.40
2018,08,17,05,26,11.40
2018,08,17,05,27,11.30
2018,08,17,05,28,11.30
2018,08,17,05,29,11.30
2018,08,17,05,30,11.30
2018,08,17,05,31,11.30
2018,08,17,05,32,11.30
2018,08,17,05,33,11.30
2018,08,17,05,34,11.30
2018,08,17,05,35,11.20
2018,08,17,05,36,11.20
2018,08,17,05,37,11.20
2018,08,17,05,38,11.20
2018,08,17,05,39,11.20
2018,08,17,05,40,11.20
2018,08,17,05,41,11.20
2018,08,17,05,42,11.30
2018,08,17,05,43,11.30
2018,08,17,05,44,11.30
2018,08,17,05,45,11.20
2018,08,17,05,46,11.20
2018,08,17,05,47,11.30
2018,08,17,05,48,11.30
2018,08,17,05,49,11.30
2018,08,17,05,50,11.20
2018,08,17,05,51,11.20
2018,08,17,05,52,11.20
2018,08,17,05,53,11.20
2018,08,17,05,54,11.20
2018,08,17,05,55,11.20
2018,08,17,05,56,11.20
2018,08,17,05,57,11.20
2018,08,17,05,58,11.20
2018,08,17,05,59,11.20
2018,08,17,06,00,11.20
2018,08,17,06,01,11.20
2018,08,17,06,02,11.20
2018,08,17,06,03,11.20
2018,08,17,06,04,11.20
2018,08,17,06,05,11.10
2018,08,17,06,06,11.10
2018,08,17,06,07,11.10
2018,08,17,06,08,11.10
2018,08,17,06,09,11.10
2018,08,17,06,10,11.10
2018,08,17,06,11,11.10
2018,08,17,06,12,11.10
2018,08,17,06,13,11.00
2018,08,17,06,14,11.00
2018,08,17,06,15,11.00
2018,08,17,06,16,11.00
2018,08,17,06,17,11.00
2018,08,17,06,18,11.00
2018,08,17,06,19,11.00
2018,08,17,06,20,11.00
2018,08,17,06,21,11.00
2018,08,17,06,22,11.00
2018,08,17,06,23,11.00
2018,08,17,06,24,11.00
2018,08,17,06,25,11.00
2018,08,17,06,26,11.00
2018,08,17,06,27,11.00
2018,08,17,06,28,11.00
2018,08,17,06,29,11.10
2018,08,17,06,30,11.10
2018,08,17,06,31,11.10
2018,08,17,06,32,11.10
2018,08,17,06,33,11.10
2018,08,17,06,34,11.10
2018,08,17,06,35,11.10
2018,08,17,06,36,11.10
2018,08,17,06,37,11.20
2018,08,17,06,38,11.20
2018,08,17,06,39,11.20
2018,08,17,06,40,11.20
2018,08,17,06,41,11.10
2018,08,17,06,42,11.10
2018,08,17,06,43,11.10
2018,08,17,06,44,11.20
2018,08,17,06,45,11.20
2018,08,17,06,46,11.20
2018,08,17,06,47,11.20
2018,08,17,06,48,11.20
2018,08,17,06,49,11.20
2018,08,17,06,50,11.30
2018,08,17,06,51,11.30
2018,08,17,06,52,11.30
2018,08,17,06,53,11.30
2018,08,17,06,54,11.30
2018,08,17,06,55,11.40
2018,08,17,06,56,11.40
2018,08,17,06,57,11.40
2018,08,17,06,58,11.40
2018,08,17,06,59,11.40
2018,08,17,07,00,11.40
2018,08,17,07,01,11.50
2018,08,17,07,02,11.50
2018,08,17,07,03,11.60
2018,08,17,07,04,11.60
2018,08,17,07,05,11.60
2018,08,17,07,06,11.60
2018,08,17,07,07,11.70
2018,08,17,07,08,11.70
2018,08,17,07,09,11.70
2018,08,17,07,10,11.70
2018,08,17,07,11,11.70
2018,08,17,07,12,11.70
2018,08,17,07,13,11.80
2018,08,17,07,14,11.80
2018,08,17,07,15,11.80
2018,08,17,07,16,11.80
2018,08,17,07,17,11.80
2018,08,17,07,18,11.90
2018,08,17,07,19,11.90
2018,08,17,07,20,11.90
2018,08,17,07,21,11.90
2018,08,17,07,22,11.90
2018,08,17,07,23,12.00
2018,08,17,07,24,12.00
2018,08,17,07,25,12.10
2018,08,17,07,26,12.10
2018,08,17,07,27,12.10
2018,08,17,07,28,12.10
2018,08,17,07,29,12.20
2018,08,17,07,30,12.30
2018,08,17,07,31,12.30
2018,08,17,07,32,12.50
2018,08,17,07,33,12.60
2018,08,17,07,34,12.70
2018,08,17,07,35,12.80
2018,08,17,07,36,13.00
2018,08,17,07,37,13.00
2018,08,17,07,38,13.10
2018,08,17,07,39,13.20
2018,08,17,07,40,13.30
2018,08,17,07,41,13.30
2018,08,17,07,42,13.30
2018,08,17,07,43,13.40
2018,08,17,07,44,13.40
2018,08,17,07,45,13.40
2018,08,17,07,46,13.40
2018,08,17,07,47,13.40
2018,08,17,07,48,13.40
2018,08,17,07,49,13.40
2018,08,17,07,50,13.40
2018,08,17,07,51,13.40
2018,08,17,07,52,13.40
2018,08,17,07,53,13.30
2018,08,17,07,54,13.30
2018,08,17,07,55,13.30
2018,08,17,07,56,13.30
2018,08,17,07,57,13.30
2018,08,17,07,58,13.40
2018,08,17,07,59,13.40
2018,08,17,08,00,13.40
2018,08,17,08,01,13.50
2018,08,17,08,02,13.50
2018,08,17,08,03,13.60
2018,08,17,08,04,13.70
2018,08,17,08,05,13.80
2018,08,17,08,06,13.80
2018,08,17,08,07,13.90
2018,08,17,08,08,13.90
2018,08,17,08,09,14.00
2018,08,17,08,10,14.10
2018,08,17,08,11,14.10
2018,08,17,08,12,14.20
2018,08,17,08,13,14.20
2018,08,17,08,14,14.30
2018,08,17,08,15,14.30
2018,08,17,08,16,14.30
2018,08,17,08,17,14.50
2018,08,17,08,18,14.60
2018,08,17,08,19,14.70
2018,08,17,08,20,14.80
2018,08,17,08,21,14.90
2018,08,17,08,22,15.00
2018,08,17,08,23,15.10
2018,08,17,08,24,15.20
2018,08,17,08,25,15.20
2018,08,17,08,26,15.30
2018,08,17,08,27,15.40
2018,08,17,08,28,15.40
2018,08,17,08,29,15.50
2018,08,17,08,30,15.60
2018,08,17,08,31,15.60
2018,08,17,08,32,15.70
2018,08,17,08,33,15.70
2018,08,17,08,34,15.80
2018,08,17,08,35,15.90
2018,08,17,08,36,16.00
2018,08,17,08,37,16.00
2018,08,17,08,38,16.00
2018,08,17,08,39,16.10
2018,08,17,08,40,16.20
2018,08,17,08,41,16.20
2018,08,17,08,42,16.30
2018,08,17,08,43,16.30
2018,08,17,08,44,16.40
2018,08,17,08,45,16.40
2018,08,17,08,46,16.40
2018,08,17,08,47,16.50
2018,08,17,08,48,16.60
2018,08,17,08,49,16.70
2018,08,17,08,50,16.70
2018,08,17,08,51,16.80
2018,08,17,08,52,16.90
2018,08,17,08,53,16.90
2018,08,17,08,54,17.00
2018,08,17,08,55,17.00
2018,08,17,08,56,17.10
2018,08,17,08,57,17.10
2018,08,17,08,58,17.10
2018,08,17,08,59,17.20
2018,08,17,09,00,17.20
2018,08,17,09,01,17.20
2018,08,17,09,02,17.20
2018,08,17,09,03,17.30
2018,08,17,09,04,17.40
2018,08,17,09,05,17.40
2018,08,17,09,06,17.50
2018,08,17,09,07,17.50
2018,08,17,09,08,17.50
2018,08,17,09,09,17.50
2018,08,17,09,10,17.50
2018,08,17,09,11,17.50
2018,08,17,09,12,17.50
2018,08,17,09,13,17.60
2018,08,17,09,14,17.60
2018,08,17,09,15,17.60
2018,08,17,09,16,17.60
2018,08,17,09,17,17.70
2018,08,17,09,18,17.70
2018,08,17,09,19,17.70
2018,08,17,09,20,17.70
2018,08,17,09,21,17.60
2018,08,17,09,22,17.60
2018,08,17,09,23,17.60
2018,08,17,09,24,17.70
2018,08,17,09,25,17.70
2018,08,17,09,26,17.70
2018,08,17,09,27,17.70
2018,08,17,09,28,17.80
2018,08,17,09,29,17.80
2018,08,17,09,30,17.90
2018,08,17,09,31,17.90
2018,08,17,09,32,17.90
2018,08,17,09,33,17.90
2018,08,17,09,34,17.90
2018,08,17,09,35,18.00
2018,08,17,09,36,18.00
2018,08,17,09,37,18.10
2018,08,17,09,38,18.10
2018,08,17,09,39,18.10
2018,08,17,09,40,18.00
2018,08,17,09,41,18.00
2018,08,17,09,42,17.90
2018,08,17,09,43,17.80
2018,08,17,09,44,17.80
2018,08,17,09,45,17.70
2018,08,17,09,46,17.60
2018,08,17,09,47,17.60
2018,08,17,09,48,17.60
2018,08,17,09,49,17.60
2018,08,17,09,50,17.50
2018,08,17,09,51,17.40
2018,08,17,09,52,17.40
2018,08,17,09,53,17.30
2018,08,17,09,54,17.20
2018,08,17,09,55,17.10
2018,08,17,09,56,17.00
2018,08,17,09,57,16.80
2018,08,17,09,58,16.80
2018,08,17,09,59,16.80
2018,08,17,10,00,16.80
2018,08,17,10,01,16.80
2018,08,17,10,02,16.80
2018,08,17,10,03,16.80
2018,08,17,10,04,16.80
2018,08,17,10,05,16.80
2018,08,17,10,06,16.80
2018,08,17,10,07,16.70
2018,08,17,10,08,16.60
2018,08,17,10,09,16.60
2018,08,17,10,10,16.60
2018,08,17,10,11,16.60
2018,08,17,10,12,16.60
2018,08,17,10,13,16.70
2018,08,17,10,14,16.70
2018,08,17,10,15,16.70
2018,08,17,10,16,16.70
2018,08,17,10,17,16.70
2018,08,17,10,18,16.70
2018,08,17,10,19,16.70
2018,08,17,10,20,16.70
2018,08,17,10,21,16.70
2018,08,17,10,22,16.70
2018,08,17,10,23,16.70
2018,08,17,10,24,16.70
2018,08,17,10,25,16.70
2018,08,17,10,26,16.70
2018,08,17,10,27,16.70
2018,08,17,10,28,16.70
2018,08,17,10,29,16.70
2018,08,17,10,30,16.70
2018,08,17,10,31,16.70
2018,08,17,10,32,16.70
2018,08,17,10,33,16.80
2018,08,17,10,34,16.80
2018,08,17,10,35,16.90
2018,08,17,10,36,16.90
2018,08,17,10,37,17.00
2018,08,17,10,38,17.00
2018,08,17,10,39,17.00
2018,08,17,10,40,17.00
2018,08,17,10,41,16.90
2018,08,17,10,42,16.90
2018,08,17,10,43,16.90
2018,08,17,10,44,16.90
2018,08,17,10,45,16.90
2018,08,17,10,46,16.90
2018,08,17,10,47,16.90
2018,08,17,10,48,17.00
2018,08,17,10,49,17.00
2018,08,17,10,50,17.10
2018,08,17,10,51,17.20
2018,08,17,10,52,17.20
2018,08,17,10,53,17.20
2018,08,17,10,54,17.20
2018,08,17,10,55,17.40
2018,08,17,10,56,17.60
2018,08,17,10,57,17.70
2018,08,17,10,58,17.70
2018,08,17,10,59,17.60
2018,08,17,11,00,17.50
2018,08,17,11,01,17.40
2018,08,17,11,02,17.30
2018,08,17,11,03,17.30
2018,08,17,11,04,17.30
2018,08,17,11,05,17.30
2018,08,17,11,06,17.30
2018,08,17,11,07,17.30
2018,08,17,11,08,17.30
2018,08,17,11,09,17.30
2018,08,17,11,10,17.30
2018,08,17,11,11,17.40
2018,08,17,11,12,17.30
2018,08,17,11,13,17.40
2018,08,17,11,14,17.40
2018,08,17,11,15,17.50
2018,08,17,11,16,17.60
2018,08,17,11,17,17.70
2018,08,17,11,18,17.60
2018,08,17,11,19,17.60
2018,08,17,11,20,17.50
2018,08,17,11,21,17.40
2018,08,17,11,22,17.40
2018,08,17,11,23,17.30
2018,08,17,11,24,17.20
2018,08,17,11,25,17.20
2018,08,17,11,26,17.20
2018,08,17,11,27,17.20
2018,08,17,11,28,17.20
2018,08,17,11,29,17.20
2018,08,17,11,30,17.20
2018,08,17,11,31,17.20
2018,08,17,11,32,17.20
2018,08,17,11,33,17.20
2018,08,17,11,34,17.30
2018,08,17,11,35,17.30
2018,08,17,11,36,17.30
2018,08,17,11,37,17.20
2018,08,17,11,38,17.10
2018,08,17,11,39,17.00
2018,08,17,11,40,16.90
2018,08,17,11,41,16.90
2018,08,17,11,42,16.90
2018,08,17,11,43,16.80
2018,08,17,11,44,16.70
2018,08,17,11,45,16.70
2018,08,17,11,46,16.60
2018,08,17,11,47,16.50
2018,08,17,11,48,16.50
2018,08,17,11,49,16.40
2018,08,17,11,50,16.40
2018,08,17,11,51,16.50
2018,08,17,11,52,16.60
2018,08,17,11,53,16.60
2018,08,17,11,54,16.60
2018,08,17,11,55,16.50
2018,08,17,11,56,16.50
2018,08,17,11,57,16.40
2018,08,17,11,58,16.40
2018,08,17,11,59,16.40
2018,08,17,12,00,16.40
2018,08,17,12,01,16.40
2018,08,17,12,02,16.50
2018,08,17,12,03,16.60
2018,08,17,12,04,16.60
2018,08,17,12,05,16.50
2018,08,17,12,06,16.60
2018,08,17,12,07,16.50
2018,08,17,12,08,16.50
2018,08,17,12,09,16.40
2018,08,17,12,10,16.40
2018,08,17,12,11,16.40
2018,08,17,12,12,16.40
2018,08,17,12,13,16.40
2018,08,17,12,14,16.40
2018,08,17,12,15,16.40
2018,08,17,12,16,16.40
2018,08,17,12,17,16.50
2018,08,17,12,18,16.50
2018,08,17,12,19,16.50
2018,08,17,12,20,16.40
2018,08,17,12,21,16.40
2018,08,17,12,22,16.40
2018,08,17,12,23,16.40
2018,08,17,12,24,16.50
2018,08,17,12,25,16.60
2018,08,17,12,26,16.60
2018,08,17,12,27,16.60
2018,08,17,12,28,16.70
2018,08,17,12,29,16.70
2018,08,17,12,30,16.80
2018,08,17,12,31,16.90
2018,08,17,12,32,16.90
2018,08,17,12,33,17.00
2018,08,17,12,34,17.00
2018,08,17,12,35,17.00
2018,08,17,12,36,17.10
2018,08,17,12,37,17.10
2018,08,17,12,38,17.00
2018,08,17,12,39,16.90
2018,08,17,12,40,16.80
2018,08,17,12,41,16.70
2018,08,17,12,42,16.70
2018,08,17,12,43,16.70
2018,08,17,12,44,16.70
2018,08,17,12,45,16.60
2018,08,17,12,46,16.60
2018,08,17,12,47,16.50
2018,08,17,12,48,16.40
2018,08,17,12,49,16.30
2018,08,17,12,50,16.30
2018,08,17,12,51,16.30
2018,08,17,12,52,16.30
2018,08,17,12,53,16.30
2018,08,17,12,54,16.30
2018,08,17,12,55,16.30
2018,08,17,12,56,16.30
2018,08,17,12,57,16.30
2018,08,17,12,58,16.30
2018,08,17,12,59,16.30
2018,08,17,13,00,16.30
2018,08,17,13,01,16.30
2018,08,17,13,02,16.40
2018,08,17,13,03,16.50
2018,08,17,13,04,16.60
2018,08,17,13,05,16.70
2018,08,17,13,06,16.70
2018,08,17,13,07,16.80
2018,08,17,13,08,16.90
2018,08,17,13,09,17.00
2018,08,17,13,10,17.10
2018,08,17,13,11,17.10
2018,08,17,13,12,17.10
2018,08,17,13,13,17.00
2018,08,17,13,14,16.80
2018,08,17,13,15,16.80
2018,08,17,13,16,16.70
2018,08,17,13,17,16.70
2018,08,17,13,18,16.80
2018,08,17,13,19,16.80
2018,08,17,13,20,16.80
2018,08,17,13,21,16.90
2018,08,17,13,22,16.90
2018,08,17,13,23,16.90
2018,08,17,13,24,17.00
2018,08,17,13,25,17.00
2018,08,17,13,26,16.90
2018,08,17,13,27,16.90
2018,08,17,13,28,16.90
2018,08,17,13,29,16.90
2018,08,17,13,30,16.90
2018,08,17,13,31,16.90
2018,08,17,13,32,16.80
2018,08,17,13,33,16.80
2018,08,17,13,34,16.70
2018,08,17,13,35,16.60
2018,08,17,13,36,16.60
2018,08,17,13,37,16.50
2018,08,17,13,38,16.40
2018,08,17,13,39,16.50
2018,08,17,13,40,16.60
2018,08,17,13,41,16.70
2018,08,17,13,42,16.70
2018,08,17,13,43,16.60
2018,08,17,13,44,16.60
2018,08,17,13,45,16.60
2018,08,17,13,46,16.60
2018,08,17,13,47,16.60
2018,08,17,13,48,16.60
2018,08,17,13,49,16.60
2018,08,17,13,50,16.50
2018,08,17,13,51,16.40
2018,08,17,13,52,16.30
2018,08,17,13,53,16.20
2018,08,17,13,54,16.20
2018,08,17,13,55,16.30
2018,08,17,13,56,16.30
2018,08,17,13,57,16.30
2018,08,17,13,58,16.30
2018,08,17,13,59,16.30
2018,08,17,14,00,16.20
2018,08,17,14,01,16.10
2018,08,17,14,02,16.10
2018,08,17,14,03,16.10
2018,08,17,14,04,16.10
2018,08,17,14,05,16.10
2018,08,17,14,06,16.00
2018,08,17,14,07,16.00
2018,08,17,14,08,15.90
2018,08,17,14,09,15.80
2018,08,17,14,10,15.80
2018,08,17,14,11,15.80
2018,08,17,14,12,15.80
2018,08,17,14,13,15.80
2018,08,17,14,14,16.00
2018,08,17,14,15,16.10
2018,08,17,14,16,16.10
2018,08,17,14,17,16.00
2018,08,17,14,18,16.00
2018,08,17,14,19,15.90
2018,08,17,14,20,16.00
2018,08,17,14,21,16.00
2018,08,17,14,22,15.90
2018,08,17,14,23,16.00
2018,08,17,14,24,16.00
2018,08,17,14,25,16.00
2018,08,17,14,26,15.90
2018,08,17,14,27,16.00
2018,08,17,14,28,15.90
2018,08,17,14,29,16.00
2018,08,17,14,30,16.00
2018,08,17,14,31,16.00
2018,08,17,14,32,16.00
2018,08,17,14,33,16.00
2018,08,17,14,34,16.10
2018,08,17,14,35,16.10
2018,08,17,14,36,16.10
2018,08,17,14,37,16.00
2018,08,17,14,38,16.00
2018,08,17,14,39,16.10
2018,08,17,14,40,16.10
2018,08,17,14,41,16.10
2018,08,17,14,42,16.10
2018,08,17,14,43,16.10
2018,08,17,14,44,16.10
2018,08,17,14,45,16.10
2018,08,17,14,46,16.20
2018,08,17,14,47,16.20
2018,08,17,14,48,16.30
2018,08,17,14,49,16.30
2018,08,17,14,50,16.30
2018,08,17,14,51,16.40
2018,08,17,14,52,16.40
2018,08,17,14,53,16.50
2018,08,17,14,54,16.50
2018,08,17,14,55,16.60
2018,08,17,14,56,16.70
2018,08,17,14,57,16.80
2018,08,17,14,58,16.90
2018,08,17,14,59,17.00
2018,08,17,15,00,17.00
2018,08,17,15,01,17.10
2018,08,17,15,02,17.10
2018,08,17,15,03,17.20
2018,08,17,15,04,17.10
2018,08,17,15,05,17.20
2018,08,17,15,06,17.20
2018,08,17,15,07,17.20
2018,08,17,15,08,17.20
2018,08,17,15,09,17.30
2018,08,17,15,10,17.30
2018,08,17,15,11,17.40
2018,08,17,15,12,17.40
2018,08,17,15,13,17.30
2018,08,17,15,14,17.40
2018,08,17,15,15,17.40
2018,08,17,15,16,17.40
2018,08,17,15,17,17.50
2018,08,17,15,18,17.60
2018,08,17,15,19,17.70
2018,08,17,15,20,17.70
2018,08,17,15,21,17.80
2018,08,17,15,22,17.80
2018,08,17,15,23,17.90
2018,08,17,15,24,18.00
2018,08,17,15,25,18.10
2018,08,17,15,26,18.20
2018,08,17,15,27,18.20
2018,08,17,15,28,18.20
2018,08,17,15,29,18.20
2018,08,17,15,30,18.20
2018,08,17,15,31,18.10
2018,08,17,15,32,18.10
2018,08,17,15,33,18.10
2018,08,17,15,34,18.20
2018,08,17,15,35,18.30
2018,08,17,15,36,18.40
2018,08,17,15,37,18.50
2018,08,17,15,38,18.60
2018,08,17,15,39,18.60
2018,08,17,15,40,18.70
2018,08,17,15,41,18.70
2018,08,17,15,42,18.90
2018,08,17,15,43,18.90
2018,08,17,15,44,19.00
2018,08,17,15,45,19.00
2018,08,17,15,46,19.00
2018,08,17,15,47,19.00
2018,08,17,15,48,19.00
2018,08,17,15,49,19.10
2018,08,17,15,50,19.00
2018,08,17,15,51,19.00
2018,08,17,15,52,18.90
2018,08,17,15,53,19.00
2018,08,17,15,54,19.00
2018,08,17,15,55,19.10
2018,08,17,15,56,19.20
2018,08,17,15,57,19.30
2018,08,17,15,58,19.30
2018,08,17,15,59,19.30
2018,08,17,16,00,19.30
2018,08,17,16,01,19.30
2018,08,17,16,02,19.30
2018,08,17,16,03,19.20
2018,08,17,16,04,19.20
2018,08,17,16,05,19.20
2018,08,17,16,06,19.20
2018,08,17,16,07,19.20
2018,08,17,16,08,19.30
2018,08,17,16,09,19.30
2018,08,17,16,10,19.40
2018,08,17,16,11,19.40
2018,08,17,16,12,19.30
2018,08,17,16,13,19.30
2018,08,17,16,14,19.30
2018,08,17,16,15,19.30
2018,08,17,16,16,19.40
2018,08,17,16,17,19.40
2018,08,17,16,18,19.50
2018,08,17,16,19,19.60
2018,08,17,16,20,19.70
2018,08,17,16,21,19.70
2018,08,17,16,22,19.70
2018,08,17,16,23,19.70
2018,08,17,16,24,19.70
2018,08,17,16,25,19.70
2018,08,17,16,26,19.70
2018,08,17,16,27,19.70
2018,08,17,16,28,19.80
2018,08,17,16,29,19.80
2018,08,17,16,30,19.80
2018,08,17,16,31,19.90
2018,08,17,16,32,19.90
2018,08,17,16,33,20.00
2018,08,17,16,34,20.00
2018,08,17,16,35,20.00
2018,08,17,16,36,20.00
2018,08,17,16,37,19.90
2018,08,17,16,38,19.80
2018,08,17,16,39,19.80
2018,08,17,16,40,19.80
2018,08,17,16,41,19.70
2018,08,17,16,42,19.60
2018,08,17,16,43,19.50
2018,08,17,16,44,19.50
2018,08,17,16,45,19.40
2018,08,17,16,46,19.40
2018,08,17,16,47,19.30
2018,08,17,16,48,19.30
2018,08,17,16,49,19.40
2018,08,17,16,50,19.40
2018,08,17,16,51,19.40
2018,08,17,16,52,19.40
2018,08,17,16,53,19.30
2018,08,17,16,54,19.30
2018,08,17,16,55,19.30
2018,08,17,16,56,19.20
2018,08,17,16,57,19.20
2018,08,17,16,58,19.10
2018,08,17,16,59,19.10
2018,08,17,17,00,19.10
2018,08,17,17,01,19.10
2018,08,17,17,02,19.10
2018,08,17,17,03,19.10
2018,08,17,17,04,19.10
2018,08,17,17,05,19.10
2018,08,17,17,06,19.10
2018,08,17,17,07,19.10
2018,08,17,17,08,19.00
2018,08,17,17,09,18.90
2018,08,17,17,10,18.90
2018,08,17,17,11,19.00
2018,08,17,17,12,19.10
2018,08,17,17,13,19.10
2018,08,17,17,14,19.10
2018,08,17,17,15,19.20
2018,08,17,17,16,19.20
2018,08,17,17,17,19.10
2018,08,17,17,18,19.10
2018,08,17,17,19,19.00